TimeCDT,TemperatureF,Dew PointF,Humidity,Sea Level PressureIn,VisibilityMPH,Wind Direction,Wind SpeedMPH,Gust SpeedMPH,PrecipitationIn,Events,Conditions,WindDirDegrees,DateUTC
12:54 AM,78.1,71.1,79,30.04,8.0,SSW,4.6,-,N/A,,Clear,210,2013-07-19 05:54:00
1:54 AM,78.1,71.1,79,30.04,8.0,Calm,Calm,-,N/A,,Clear,0,2013-07-19 06:54:00
2:54 AM,75.9,71.1,85,30.03,7.0,Calm,Calm,-,N/A,,Clear,0,2013-07-19 07:54:00
3:54 AM,75.0,71.1,87,30.03,6.0,Calm,Calm,-,N/A,,Mostly Cloudy,0,2013-07-19 08:54:00
4:54 AM,75.0,72.0,90,30.03,5.0,Calm,Calm,-,N/A,,Clear,0,2013-07-19 09:54:00
5:54 AM,75.0,72.0,90,30.03,4.0,Calm,Calm,-,N/A,,Clear,0,2013-07-19 10:54:00
6:54 AM,77.0,73.0,88,30.04,4.0,Calm,Calm,-,N/A,,Clear,0,2013-07-19 11:54:00
7:54 AM,79.0,72.0,79,30.05,8.0,SW,4.6,-,N/A,,Clear,220,2013-07-19 12:54:00
8:54 AM,82.9,72.0,69,30.05,10.0,SSW,6.9,-,N/A,,Clear,200,2013-07-19 13:54:00
9:54 AM,84.9,73.0,67,30.04,10.0,SW,9.2,-,N/A,,Clear,220,2013-07-19 14:54:00
10:54 AM,86.0,73.0,65,30.04,10.0,SSW,8.1,-,N/A,,Clear,210,2013-07-19 15:54:00
11:54 AM,88.0,73.0,61,30.04,10.0,WSW,12.7,-,N/A,,Mostly Cloudy,240,2013-07-19 16:54:00
12:54 PM,89.1,71.1,55,30.01,10.0,SW,10.4,-,N/A,,Partly Cloudy,230,2013-07-19 17:54:00
1:54 PM,90.0,71.1,54,29.99,10.0,SSW,9.2,-,N/A,,Partly Cloudy,200,2013-07-19 18:54:00
2:54 PM,90.0,69.1,50,29.96,10.0,SSW,10.4,-,N/A,,Clear,200,2013-07-19 19:54:00
3:54 PM,90.0,71.1,54,29.94,10.0,SSW,13.8,24.2,N/A,,Partly Cloudy,210,2013-07-19 20:54:00
4:54 PM,89.1,70.0,53,29.93,10.0,SW,11.5,-,N/A,,Partly Cloudy,220,2013-07-19 21:54:00
5:54 PM,89.1,69.1,52,29.92,10.0,WSW,13.8,-,N/A,,Clear,240,2013-07-19 22:54:00
6:54 PM,87.1,70.0,57,29.92,10.0,SW,8.1,-,N/A,,Clear,230,2013-07-19 23:54:00
7:54 PM,84.9,71.1,63,29.92,10.0,SSW,8.1,-,N/A,,Clear,210,2013-07-20 00:54:00
8:54 PM,81.0,71.1,72,29.93,10.0,SW,3.5,-,N/A,,Clear,220,2013-07-20 01:54:00
9:54 PM,80.1,71.1,74,29.95,10.0,Calm,Calm,-,N/A,,Clear,0,2013-07-20 02:54:00
10:54 PM,80.1,71.1,74,29.95,10.0,Calm,Calm,-,N/A,,Clear,0,2013-07-20 03:54:00
11:54 PM,77.0,71.1,82,29.95,10.0,SW,5.8,-,N/A,,Clear,220,2013-07-20 04:54:00